Regional Weather Roundup
Issued by NWS Little Rock, AR

Home | Current Version | Previous Version | Text Only | Print | Product List | Glossary Off
Versions: 1 2 3 4 5 6 7 8 9 10 11 12 13 14 15 16 17 18 19 20 21 22 23 24 25 26 27 28 29 30 31

000
ASUS44 KLZK 251405
RWRLZK

WEATHER ROUNDUP FOR ARKANSAS
NATIONAL WEATHER SERVICE LITTLE ROCK AR
900 AM CDT SAT MAR 25 2017

NOTE: "FAIR" INDICATES FEW OR NO CLOUDS BELOW 12,000 FEET WITH NO
SIGNIFICANT WEATHER AND/OR OBSTRUCTIONS TO VISIBILITY.

ARZ001-003-010-029-251500-
NORTHWEST ARKANSAS

CITY           SKY/WX    TMP DP  RH WIND       PRES   REMARKS
FAYETTEVILLE   CLOUDY    54  52  93 SW8       29.81R
FORT SMITH     CLOUDY    56  51  84 W16       29.83R
HARRISON       LGT RAIN  55  54  96 W6        29.80R
BENTONVILLE    CLOUDY    54  50  87 NW13      29.81R
ROGERS         LGT RAIN  53  52  96 S3        29.81R
SILOAM SPGS    CLOUDY    52  46  82 W10G18    29.82R
HIGHFILL       CLOUDY    53  52  96 NW9       29.81R FOG
$$

ARZ004-005-016-251500-
NORTH CENTRAL ARKANSAS

CITY           SKY/WX    TMP DP  RH WIND       PRES   REMARKS
BATESVILLE     CLOUDY    59  55  88 S12G18    29.86R
FLIPPIN        CLOUDY    59  52  77 SE8       29.78F
MTN HOME       CLOUDY    56  56 100 S7        29.80S
$$

ARZ040-041-251500-
WEST CENTRAL ARKANSAS

CITY           SKY/WX    TMP DP  RH WIND       PRES   REMARKS
MENA           CLOUDY    57  55  94 W8        29.88R
MOUNT IDA      SUNNY     59  49  69 VRB7      29.84R
$$

ARZ009-017-025-026-028-251500-
NORTHEAST ARKANSAS

CITY           SKY/WX    TMP DP  RH WIND       PRES   REMARKS
CORNING        RAIN      57  57 100 SE13      29.90S
JONESBORO      LGT RAIN  59  58  96 SE14      29.89F
NEWPORT        CLOUDY    60  57  89 S18       29.87S
WALNUT RIDGE   CLOUDY    57  54  88 SE18      29.86F
BLYTHEVILLE    LGT RAIN  61  59  93 S16G23    29.94R
$$

ARZ022-023-033-042-044-251500-
CENTRAL ARKANSAS

CITY           SKY/WX    TMP DP  RH WIND       PRES   REMARKS
LITTLE ROCK    PTSUNNY   61  59  93 S12       29.87R
N LITTLE ROCK    N/A     61  58  91 S8G16     29.86R
JACKSONVILLE   PTSUNNY   62  59  91 S9        29.85R
CONWAY           N/A     63  55  77 SW20G26   29.83R
SEARCY         CLOUDY    61  59  93 S15       29.88R
HOT SPRINGS    SUNNY     60  52  74 W16G23    29.87R
RUSSELLVILLE   MOSUNNY   58  52  80 SW5       29.83R
CLINTON        CLOUDY    61  59  94 S8G15     29.82S
$$

ARZ036-251500-
EAST ARKANSAS

CITY           SKY/WX    TMP DP  RH WIND       PRES   REMARKS
WEST MEMPHIS   LGT RAIN  60  59  96 S18       29.93R
$$

ARZ050-053-066-070-073-251500-
SOUTHWEST ARKANSAS

CITY           SKY/WX    TMP DP  RH WIND       PRES   REMARKS
ARKADELPHIA    FAIR      61  52  72 SW12G23   29.90R
CAMDEN         MOSUNNY   64  55  72 SW10      29.92R
TEXARKANA      SUNNY     58  50  75 W14       29.92R
EL DORADO      MOSUNNY   64  58  80 SW9       29.93R
DE QUEEN       MOSUNNY   58  53  84 W8        29.89R
$$

ARZ056-057-069-251500-
SOUTHEAST ARKANSAS

CITY           SKY/WX    TMP DP  RH WIND       PRES   REMARKS
PINE BLUFF     CLOUDY    61  58  90 S16       29.90R
STUTTGART      CLOUDY    61  52  72 S17       29.90R
MONTICELLO       N/A     62  58  86 MISG      29.93R

$$






USA.gov is the U.S. government's official web portal to all federal, state and local government web resources and services.